Location: Complexul Astronomic Baia Mare
(47.6577°N, 23.5639°E)
Time: 05:43:39
(UTC+03:00)

ISS - Pass Details

Date: 18 March 2017
Orbit: 399 x 409 km, 51.6° (Epoch: 30 March)

Event Time Altitude Azimuth Distance (km) Brightness Sun altitude
Exits shadow 03:28:17 14° 66° (ENE) 1,273 -0.5 -30.0°
Drops below altitude 10° 03:28:50 10° 70° (ENE) 1,478 -0.2 -29.9°
Sets 03:31:01 0° 78° (ENE) 2,340 1.0 -29.6°
